STARLINK-34850, 65460

Orbit data source: Space-Track

STARLINK-34850, 65460 is a payload satellite owned by SpaceX/Seattle (US) in LEO that was launched on Wed, 03 Sep 2025 UTC via an FALCON 9 launch vehicle from the Air Force Eastern Test Range (AFETR). Payload-class satellites include a variety of spacecraft equipped with specific instruments for various scientific and technological missions. These include communications satellites like Starlink; space stations such as the ISS; scientific satellites like the Hubble; Earth observation satellites from companies like Planet Labs, Umbra, and HawkEye 360; GPS; miniature CubeSats for education and research; and military/defense satellites.

Loading next visibility...
Identifier
65460, 2025-195C
Orbit
LEO
Country
Flag of USUS
Related business
Manufacturer
SpaceX/Seattle
Mission
Operational spacecraft
Bus & Motor
STARLINK V2MO, Unknown motor
Mass
575 kg wet, ~530 kg dry
Launch date (UTC)
2025-09-03 (2 weeks ago)
Launch vehicle
FALCON 9
Launch site
Air Force Eastern Test Range (AFETR)
Object type
Payload
Rocket body
Debris
Shape & HBR
Unknown
Radar Cross Section
RCS unknown

Expand to show TLE details & history
Last TLE update: 20 hours ago

TLE from 20 hours ago
0 STARLINK-34850
1 65460U 25195C   25259.58337963 -.01615619  00000-0 -13409-1 0  9999
2 65460  53.1593 352.5058 0001215  86.4436  84.1041 15.72383501  2563
Epoch: 2025-09-16T14:00Z
TLE epoch observation values (Epoch: 2025-09-16T14:00:04Z)
Latitude
7.50747°
Longitude
-38.91679°
Altitude
352.255 km
Speed
7.7 km/s
True Right ascension
11h 07m 29s
True Declination
7° 27' 37"
Sunlit
Object was in daylight at epoch
Visualization orbit readout
Latitude
Unknown
Longitude
Unknown
Altitude
Unknown
Speed
Unknown
Apparent Right ascension
Unknown
Apparent Declination
Unknown
Sunlit
N/A
Visualization observer readout
Local Sidereal Time
03:02:41
Azimuth
Unknown
Elevation
Unknown
Doppler factor
Unknown
Orbital elements
Apogee altitude
353.166 km
Perigee altitude
351.53 km
Semi-major axis
6,730.485 km
Eccentricity
0.00012
Inclination
53.1593°
RAAN
352.5058°
Arg. of periapsis
86.4436°
True anomaly
84.11795°
Mean anomaly
84.1041°
Eccentric anomaly
84.11102°
Mean motion
3.93073 °/min
Orbital period
91.59 mins
BSTAR
-0.013409
Loading maneuver chart data...
Computing Atmospheric mass density...
Loading historical data...
Loading historical data...
Loading historical data...
Loading historical data...
Loading historical data...
Loading historical data...
Loading historical data...

Documentation

Showing up to 5 results
|